Date,TemperatureHighF,TemperatureAvgF,TemperatureLowF,DewpointHighF,DewpointAvgF,DewpointLowF,HumidityHigh,HumidityAvg,HumidityLow,PressureMaxIn,PressureMinIn,WindSpeedMaxMPH,WindSpeedAvgMPH,GustSpeedMaxMPH,PrecipitationSumIn
2014-1-1,45,31,18,27,22,15,90,72,47,30.39,30.13,6,1,7,0.00
2014-1-2,34,29,25,30,26,22,94,89,81,30.13,29.67,2,0,4,0.01
2014-1-3,26,14,4,23,6,-1,91,72,49,30.51,29.70,5,1,13,0.00
2014-1-4,30,17,1,14,7,-2,91,67,46,30.50,30.26,6,2,11,0.02
2014-1-5,39,23,10,38,20,7,97,88,71,30.28,29.64,4,0,4,0.00
2014-1-6,42,29,4,41,20,-11,97,70,44,30.11,29.48,8,4,13,0.51
2014-1-7,12,5,-1,-4,-9,-14,64,51,44,30.49,30.11,8,4,17,0.00
2014-1-8,25,16,4,15,4,-4,79,58,39,30.62,30.48,4,1,9,0.00
2014-1-9,37,27,18,23,19,13,87,71,51,30.66,30.51,3,1,6,0.00
2014-1-10,40,35,31,36,31,22,95,87,65,30.55,30.13,2,0,6,0.24
2014-1-11,52,41,34,52,40,33,100,95,71,30.12,29.38,6,1,10,0.26
2014-1-12,47,40,27,36,30,24,91,69,56,30.10,29.60,6,3,13,0.00
2014-1-13,52,39,23,40,31,22,96,76,55,30.09,29.84,5,1,7,0.00
2014-1-14,49,43,29,46,40,28,96,90,72,29.91,29.69,4,1,7,0.24
2014-1-15,46,34,25,41,30,24,98,85,57,29.99,29.89,4,1,7,0.01
2014-1-16,37,31,24,24,20,16,77,62,48,30.04,29.89,3,1,7,0.00
2014-1-17,47,35,22,29,25,19,90,69,47,29.95,29.84,4,1,9,0.00
2014-1-18,32,24,15,30,15,8,92,70,51,30.01,29.84,6,2,12,0.02
2014-1-19,41,28,17,27,19,10,79,67,52,29.95,29.72,8,2,19,0.01
2014-1-20,49,39,32,31,27,23,76,63,49,29.89,29.66,8,3,12,0.00
2014-1-21,35,24,10,29,20,1,92,83,66,29.96,29.80,4,2,8,0.00
2014-1-22,16,8,0,1,-2,-6,75,64,44,30.12,29.95,4,1,9,0.01
2014-1-23,21,8,-4,9,-1,-7,87,70,51,30.48,30.12,6,2,12,0.00
2014-1-24,17,10,4,1,-2,-5,70,59,47,30.55,30.04,5,3,9,0.00
2014-1-25,32,26,19,22,12,5,78,55,46,29.76,29.45,7,4,11,0.00
2014-1-26,31,24,10,14,9,3,73,53,45,29.92,29.71,4,2,7,0.00
2014-1-27,36,24,13,28,11,-3,86,59,43,30.24,29.63,7,2,12,0.00
2014-1-28,13,10,5,3,-5,-8,70,51,42,30.47,30.24,4,1,6,0.00
2014-1-29,22,13,4,4,-2,-9,80,53,36,30.39,30.25,6,2,10,0.00
2014-1-30,31,17,0,9,3,-5,84,54,35,30.48,30.15,5,2,9,0.00
2014-1-31,45,32,25,24,16,9,77,53,30,30.24,30.12,4,1,8,0.02
2014-2-1,49,36,25,27,22,18,89,61,33,30.28,29.98,5,1,8,0.00
2014-2-2,55,43,29,41,34,24,89,72,47,30.11,29.92,3,0,7,0.01
2014-2-3,39,34,30,36,32,28,96,94,89,30.35,30.06,2,1,7,1.02
2014-2-4,32,27,20,27,23,18,94,85,71,30.49,30.18,2,0,4,0.09
2014-2-5,37,32,28,35,29,21,96,90,71,30.20,29.70,9,1,13,0.58
2014-2-6,34,27,22,21,18,15,79,68,50,30.37,30.15,4,2,8,0.05
2014-2-7,37,30,22,20,18,12,83,62,47,30.37,30.28,4,2,8,0.02
2014-2-8,29,23,17,18,15,13,90,73,58,30.37,30.21,2,0,2,0.00
2014-2-9,30,25,18,26,22,15,94,87,71,30.22,30.00,3,0,7,0.00
2014-2-10,29,22,11,24,12,6,93,66,50,30.37,30.09,4,1,7,0.08
2014-2-11,28,16,6,13,8,3,90,71,46,30.52,30.36,3,1,7,0.00
2014-2-12,26,16,2,17,8,-1,97,73,49,30.56,30.23,3,1,5,0.00
2014-2-13,36,31,19,32,28,16,94,90,80,30.24,29.40,5,2,10,0.15
2014-2-14,46,36,26,30,25,18,83,65,44,29.74,29.43,9,2,15,0.28
2014-2-15,35,32,24,32,27,10,92,82,53,29.99,29.64,3,1,4,0.07
2014-2-16,30,25,20,24,16,9,90,68,54,30.24,29.98,5,1,7,0.00
2014-2-17,32,24,12,21,11,7,81,58,40,30.48,30.19,7,2,11,0.00
2014-2-18,53,35,24,32,26,20,92,71,39,30.21,30.01,7,2,13,0.12
2014-2-19,56,39,26,42,31,23,94,76,42,30.15,29.73,9,2,13,0.22
2014-2-20,51,41,24,33,28,22,94,62,38,30.24,29.91,6,2,9,0.00
2014-2-21,53,45,38,50,35,25,96,70,41,29.98,29.68,5,1,10,0.39
2014-2-22,59,46,29,27,23,19,83,43,21,30.08,29.98,9,3,16,0.00
2014-2-23,54,38,26,38,30,23,92,75,44,30.03,29.92,4,1,8,0.03
2014-2-24,40,34,29,32,16,10,82,49,33,30.14,29.95,9,4,15,0.00
2014-2-25,37,30,25,22,16,12,67,57,44,30.14,30.01,5,2,10,0.00
2014-2-26,31,26,14,19,12,4,74,57,36,30.02,29.87,6,2,14,0.00
2014-2-27,32,17,12,10,6,-2,82,62,33,30.21,29.73,9,2,13,0.00
2014-2-28,28,17,7,6,-1,-5,69,47,23,30.39,30.21,3,0,5,0.00
2014-3-1,41,27,12,23,14,2,80,59,42,30.39,30.18,3,0,4,0.00
2014-3-2,40,36,30,36,30,23,95,80,61,30.15,30.02,3,0,6,0.19
2014-3-3,30,16,-1,28,6,-5,93,68,47,30.39,30.04,3,1,6,0.02
2014-3-4,31,14,-3,11,4,-6,88,66,34,30.47,30.28,4,1,6,0.10
2014-3-5,42,27,9,20,14,6,89,60,35,30.47,30.22,4,1,6,0.05
2014-3-6,34,26,19,18,14,10,76,60,48,30.60,30.39,4,2,7,0.00
2014-3-7,43,31,26,32,24,17,90,74,61,30.40,29.98,2,1,5,0.00
2014-3-8,60,42,21,37,30,19,93,67,39,29.98,29.88,5,0,6,0.00
2014-3-9,45,39,33,36,24,18,84,57,35,30.15,29.95,4,2,7,0.00
2014-3-10,68,49,33,36,30,23,71,50,30,30.01,29.63,9,2,16,0.00
2014-3-11,73,56,41,44,39,31,79,56,34,29.71,29.60,6,1,8,0.00
2014-3-12,62,45,28,53,38,17,93,78,47,29.63,29.02,11,2,17,0.14
2014-3-13,31,24,15,18,8,2,69,49,34,30.19,29.55,8,4,20,0.00
2014-3-14,58,41,22,26,18,8,63,40,28,30.20,29.83,9,3,17,0.00
2014-3-15,61,53,39,38,29,24,64,40,26,30.06,29.77,10,4,16,0.00
2014-3-16,40,34,26,28,22,12,86,63,32,30.21,30.07,4,1,7,0.00
2014-3-17,31,27,22,25,22,19,91,81,71,30.11,30.03,3,1,6,0.20
2014-3-18,46,39,29,25,23,16,81,53,42,30.23,30.10,3,1,6,0.00
2014-3-19,43,39,36,40,34,25,95,82,57,30.22,29.86,3,1,8,0.08
2014-3-20,53,45,37,40,31,25,97,61,37,30.01,29.82,10,4,17,0.01
2014-3-21,54,41,28,38,31,23,87,67,50,30.08,30.00,5,2,8,0.00
2014-3-22,63,44,35,35,32,30,89,66,30,30.05,29.83,3,1,8,0.00
2014-3-23,45,36,27,30,22,11,77,57,34,30.23,30.03,4,1,9,0.00
2014-3-24,40,30,16,13,9,6,69,44,26,30.34,30.14,5,2,9,0.00
2014-3-25,33,27,21,31,23,11,93,83,56,30.16,29.90,1,0,4,0.22
2014-3-26,35,28,21,20,12,8,93,51,35,30.34,29.93,6,3,19,0.01
2014-3-27,48,36,14,24,19,9,86,52,38,30.43,30.14,6,3,10,0.00
2014-3-28,65,53,44,53,42,23,91,67,41,30.14,29.94,7,4,13,0.08
2014-3-29,53,48,42,48,45,40,96,90,79,30.10,29.59,3,1,7,0.70
2014-3-30,46,40,34,45,38,33,97,91,72,29.86,29.58,7,2,12,0.66
2014-3-31,66,50,35,36,32,29,80,54,26,30.11,29.86,6,3,11,0.00
2014-4-1,67,50,30,41,35,27,91,60,37,30.17,29.93,5,2,8,0.00
2014-4-2,68,52,40,51,44,37,90,76,53,30.12,29.98,3,0,4,0.00
2014-4-3,63,54,49,50,44,36,92,71,41,30.11,29.92,3,1,6,0.05
2014-4-4,56,50,46,49,44,40,95,80,72,29.94,29.68,5,1,8,0.03
2014-4-5,50,46,37,46,34,27,96,65,46,30.19,29.73,8,3,11,0.01
2014-4-6,61,44,25,31,26,22,86,54,25,30.27,30.12,5,1,7,0.00
2014-4-7,47,43,39,42,35,25,97,78,44,30.16,29.60,4,1,7,0.37
2014-4-8,61,50,38,49,42,35,98,77,47,29.70,29.47,10,2,14,0.00
2014-4-9,64,47,30,43,33,28,100,63,28,30.06,29.69,5,1,9,0.00
2014-4-10,71,54,30,40,34,26,93,52,28,30.19,29.95,8,3,15,0.00
2014-4-11,76,61,50,55,45,36,96,60,34,30.05,29.92,5,2,10,0.08
2014-4-12,76,59,38,54,42,33,98,62,22,30.26,30.04,5,2,10,0.01
2014-4-13,84,69,56,59,53,47,82,60,37,30.09,29.91,7,4,14,0.00
2014-4-14,76,70,64,59,56,54,71,61,51,29.93,29.73,8,5,13,0.00
2014-4-15,69,50,33,63,45,22,96,85,61,30.09,29.50,8,3,12,0.84
2014-4-16,48,36,27,24,20,16,73,52,32,30.54,30.08,5,2,10,0.00
2014-4-17,57,47,28,34,31,23,84,54,36,30.66,30.52,5,3,9,0.00
2014-4-18,51,38,30,37,32,28,94,81,58,30.59,30.26,2,0,4,0.00
2014-4-19,68,52,36,45,36,28,95,60,24,30.32,30.23,4,1,8,0.00
2014-4-20,67,53,38,42,35,30,72,51,35,30.42,30.28,4,1,6,0.00
2014-4-21,72,54,33,40,33,24,94,54,18,30.28,29.85,4,1,7,0.00
2014-4-22,72,56,43,58,47,37,94,74,49,29.85,29.55,6,1,8,0.19
2014-4-23,54,48,43,40,36,31,77,63,54,30.01,29.72,6,2,9,0.00
2014-4-24,66,50,35,34,27,20,69,45,19,30.15,29.99,4,1,7,0.00
2014-4-25,53,45,38,50,40,33,94,82,55,30.01,29.72,1,0,6,0.45
2014-4-26,76,64,50,52,45,33,95,53,32,29.93,29.72,8,4,16,0.01
2014-4-27,65,51,37,42,36,31,84,59,36,30.11,29.93,4,1,8,0.00
2014-4-28,62,52,43,48,41,36,94,67,47,30.12,29.96,4,1,8,0.23
2014-4-29,49,48,46,47,45,43,94,91,83,30.22,30.03,5,2,8,0.57
2014-4-30,55,50,46,54,49,44,97,95,92,30.19,29.85,4,1,6,0.51
2014-5-1,75,62,51,60,52,43,98,74,44,29.87,29.72,4,1,8,0.03
2014-5-2,66,58,41,43,41,38,90,55,39,29.88,29.81,6,3,11,0.00
2014-5-3,71,59,43,48,44,40,93,60,34,29.88,29.72,8,2,10,0.00
2014-5-4,69,56,41,51,44,34,97,67,45,29.97,29.74,4,1,11,0.00
2014-5-5,66,56,38,44,39,34,89,54,36,30.08,29.90,6,2,9,0.00
2014-5-6,73,61,48,50,44,39,94,57,30,30.05,29.90,3,1,6,0.00
2014-5-7,66,54,45,54,45,35,93,73,39,30.27,30.05,3,1,6,0.38
2014-5-8,87,65,46,65,56,45,97,76,42,30.16,29.97,3,1,7,0.00
2014-5-9,81,71,55,67,63,54,97,76,56,30.09,29.89,4,2,9,0.01
2014-5-10,77,70,60,66,63,59,95,80,58,29.97,29.90,6,2,9,0.18
2014-5-11,82,70,54,61,55,49,98,64,32,30.14,29.97,3,1,5,0.01
2014-5-12,86,71,52,68,61,51,96,74,50,30.12,30.03,3,1,6,0.00
2014-5-13,90,74,63,71,66,61,97,77,48,30.15,30.02,5,1,9,0.16
2014-5-14,70,64,59,65,61,57,94,88,82,30.20,30.11,3,1,5,0.00
2014-5-15,79,72,66,68,66,64,97,83,68,30.07,29.86,7,3,11,0.80
2014-5-16,68,60,49,66,52,44,98,79,51,29.96,29.75,8,1,9,0.55
2014-5-17,65,54,43,46,40,35,94,65,34,30.19,29.96,5,1,8,0.00
2014-5-18,66,52,40,45,41,37,95,69,36,30.27,30.19,3,1,7,0.00
2014-5-19,74,55,37,48,41,35,97,65,27,30.33,30.15,4,1,6,0.00
2014-5-20,76,61,42,55,48,41,97,66,33,30.22,30.00,3,1,5,0.00
2014-5-21,72,64,56,64,58,52,95,82,68,30.01,29.87,1,0,4,0.00
2014-5-22,85,70,60,70,61,49,98,75,48,29.93,29.76,7,2,10,0.76
2014-5-23,74,62,50,56,50,45,93,66,44,30.05,29.91,6,2,10,0.00
2014-5-24,77,64,48,57,53,46,92,67,41,30.13,30.04,4,1,6,0.01
2014-5-25,82,66,49,60,53,48,97,68,32,30.18,30.08,3,1,6,0.00
2014-5-26,86,73,50,60,56,49,97,61,34,30.14,29.95,4,1,7,0.00
2014-5-27,87,70,58,71,64,56,97,82,55,29.99,29.83,5,1,7,0.06
2014-5-28,83,74,64,70,67,60,96,81,61,30.03,29.85,5,1,6,0.00
2014-5-29,64,58,56,60,55,54,96,89,86,30.17,30.03,3,1,5,0.08
2014-5-30,77,63,55,60,56,54,97,81,49,30.17,30.06,3,0,7,0.01
2014-5-31,80,65,49,58,51,44,97,65,32,30.24,30.12,4,1,7,0.00
2014-6-1,78,68,53,58,54,48,90,63,42,30.34,30.20,5,2,11,0.00
2014-6-2,83,71,57,66,58,51,81,66,52,30.25,30.02,4,2,8,0.00
2014-6-3,86,73,60,70,65,58,97,77,54,30.02,29.82,4,1,9,0.00
2014-6-4,83,73,63,66,63,57,96,74,47,29.89,29.67,4,0,5,0.03
2014-6-5,78,67,58,64,58,52,97,75,44,29.88,29.60,5,1,7,0.54
2014-6-6,79,65,50,59,53,48,94,69,44,30.00,29.86,2,1,7,0.00
2014-6-7,83,67,50,61,56,49,98,71,39,30.06,29.94,3,1,7,0.00
2014-6-8,83,68,55,70,62,54,97,83,57,29.97,29.78,7,1,11,0.25
2014-6-9,82,73,67,72,68,66,98,86,64,29.89,29.82,2,0,5,0.45
2014-6-10,86,75,68,73,69,67,98,85,58,29.93,29.85,2,0,4,0.01
2014-6-11,84,72,64,73,68,63,98,89,65,29.99,29.87,7,2,18,0.95
2014-6-12,78,70,65,72,68,64,98,93,82,29.95,29.81,6,1,9,0.35
2014-6-13,86,74,66,72,68,61,96,84,51,29.87,29.71,6,1,11,0.02
2014-6-14,73,66,56,65,55,52,96,71,53,30.11,29.87,4,1,9,0.01
2014-6-15,84,67,50,62,57,49,97,73,44,30.19,30.07,3,1,6,0.00
2014-6-16,90,72,56,72,64,55,98,78,47,30.15,30.02,4,1,7,0.22
2014-6-17,92,80,66,75,71,65,97,75,51,30.11,29.92,4,1,6,0.00
2014-6-18,92,80,69,75,71,64,93,75,53,30.01,29.93,3,1,7,0.01
2014-6-19,80,72,65,72,69,64,96,88,70,30.04,29.92,4,0,6,0.28
2014-6-20,83,70,56,64,59,52,98,73,45,30.08,29.92,2,0,5,0.01
2014-6-21,70,66,61,63,60,57,93,81,66,29.94,29.88,2,0,6,0.00
2014-6-22,80,68,57,66,62,56,97,80,58,30.00,29.90,2,0,5,0.00
2014-6-23,84,72,60,65,62,59,96,73,52,30.09,30.00,5,2,10,0.00
2014-6-24,86,76,66,73,66,60,85,74,61,30.10,29.95,5,2,10,0.00
2014-6-25,89,78,70,74,70,66,97,79,58,29.97,29.77,5,2,8,1.50
2014-6-26,86,75,68,70,68,65,98,80,51,29.99,29.85,2,0,5,0.00
2014-6-27,87,75,63,72,67,62,97,78,55,30.17,29.99,5,1,7,0.00
2014-6-28,85,76,64,67,61,49,94,64,35,30.26,30.17,5,1,9,0.00
2014-6-29,85,76,66,64,60,57,83,60,42,30.22,30.08,5,2,11,0.00
2014-6-30,87,78,67,73,67,60,84,70,60,30.09,29.90,4,1,8,0.00
2014-7-1,93,80,70,76,72,67,97,78,56,29.93,29.78,5,2,14,1.81
2014-7-2,94,78,69,79,73,69,99,86,55,29.92,29.82,3,1,6,0.01
2014-7-3,90,77,70,75,72,69,97,85,56,29.98,29.85,4,1,5,0.09
2014-7-4,77,71,61,70,59,50,96,68,45,30.19,29.98,4,1,7,0.00
2014-7-5,83,70,52,57,54,50,93,60,36,30.27,30.14,3,1,4,0.00
2014-7-6,86,70,56,67,60,54,97,73,44,30.15,29.93,3,1,10,0.00
2014-7-7,92,80,70,72,68,64,85,67,46,29.93,29.75,7,2,11,0.00
2014-7-8,90,78,69,74,68,66,93,75,56,29.83,29.64,10,2,21,0.18
2014-7-9,89,78,66,73,68,61,96,75,44,29.95,29.80,4,2,6,0.00
2014-7-10,86,75,64,71,66,62,98,77,48,30.13,29.95,4,0,7,0.00
2014-7-11,86,74,62,71,66,60,96,77,51,30.20,30.12,3,0,5,0.00
2014-7-12,88,77,65,75,69,64,97,79,57,30.19,30.06,5,1,7,0.00
2014-7-13,88,80,69,75,71,66,91,76,62,30.07,29.84,10,2,14,0.56
2014-7-14,87,76,71,77,72,70,97,90,68,29.89,29.80,3,1,5,1.05
2014-7-15,83,74,69,75,71,68,99,90,69,29.83,29.71,3,0,5,0.00
2014-7-16,79,68,58,68,59,54,96,77,45,29.95,29.78,3,0,7,0.00
2014-7-17,80,67,56,62,58,54,97,75,42,30.15,29.94,3,0,5,0.00
2014-7-18,80,68,53,65,59,52,97,77,45,30.25,30.14,3,0,5,0.00
2014-7-19,80,70,63,66,62,59,96,78,51,30.21,30.12,4,1,9,0.02
2014-7-20,80,72,62,69,65,60,95,78,60,30.13,30.06,2,0,4,0.00
2014-7-21,84,74,68,72,69,65,96,83,64,30.17,30.09,4,1,7,0.00
2014-7-22,87,78,68,74,71,66,96,80,62,30.17,30.03,5,1,9,0.00
2014-7-23,92,78,70,78,72,68,96,82,57,30.03,29.76,5,1,6,0.08
2014-7-24,78,71,60,70,64,58,95,79,55,29.97,29.85,1,0,5,0.02
2014-7-25,82,68,52,61,57,51,97,72,42,30.09,29.97,3,1,6,0.00
2014-7-26,86,73,62,68,63,59,94,73,43,30.01,29.85,4,1,6,0.08
2014-7-27,88,75,68,75,70,66,96,84,62,29.87,29.62,6,2,12,0.76
2014-7-28,79,71,65,69,63,58,98,79,54,29.84,29.55,7,2,11,0.16
2014-7-29,71,63,54,59,54,51,93,74,54,30.02,29.83,3,1,8,0.00
2014-7-30,78,64,49,62,55,48,98,75,49,30.08,30.01,3,1,7,0.02
2014-7-31,84,70,58,67,62,56,98,78,50,30.10,30.04,3,1,7,0.01
2014-8-1,78,70,61,70,65,60,97,86,70,30.17,30.10,5,1,6,0.00
2014-8-2,82,73,63,69,65,60,94,78,60,30.15,30.04,3,1,7,0.00
2014-8-3,84,72,63,71,68,62,97,86,61,30.07,29.97,4,1,8,0.32
2014-8-4,83,71,62,70,66,61,98,85,58,30.12,30.04,3,0,5,0.01
2014-8-5,87,73,59,72,64,58,98,77,44,30.08,29.92,3,1,8,0.10
2014-8-6,81,70,64,70,66,63,98,89,66,29.96,29.89,2,0,4,0.01
2014-8-7,82,71,62,66,62,59,98,77,47,30.05,29.94,2,0,3,0.00
2014-8-8,82,68,55,65,60,54,98,78,48,30.15,30.06,3,0,6,0.00
2014-8-9,84,70,59,70,64,57,97,82,56,30.12,30.05,3,0,5,0.00
2014-8-10,85,73,59,69,64,58,98,75,52,30.13,30.05,3,1,7,0.00
2014-8-11,80,70,61,66,63,60,96,79,55,30.10,30.00,5,1,7,0.24
2014-8-12,78,71,65,72,68,64,96,91,80,30.00,29.74,4,2,9,0.50
2014-8-13,78,70,61,70,64,57,97,82,57,29.91,29.75,5,1,10,0.05
2014-8-14,80,66,52,63,55,48,97,72,37,29.95,29.85,5,1,14,0.00
2014-8-15,78,63,48,56,52,47,97,70,39,30.02,29.95,4,1,8,0.00
2014-8-16,81,68,47,60,56,46,98,68,43,30.04,29.92,4,1,7,0.00
2014-8-17,86,72,60,69,63,58,95,76,48,29.93,29.86,5,1,7,0.00
2014-8-18,83,70,59,69,64,58,97,81,58,29.93,29.79,4,1,8,0.00
2014-8-19,82,73,63,71,67,62,97,83,66,29.90,29.81,3,0,5,0.00
2014-8-20,83,74,67,73,69,65,95,85,69,30.00,29.88,5,1,10,0.54
2014-8-21,86,72,64,74,68,62,98,90,63,30.04,29.95,3,0,6,0.22
2014-8-22,80,71,63,72,68,62,99,90,72,30.00,29.93,2,0,5,0.00
2014-8-23,72,69,66,69,67,65,98,94,89,30.09,29.95,2,0,4,0.99
2014-8-24,79,68,60,68,63,59,98,85,57,30.16,30.09,3,0,5,0.09
2014-8-25,82,68,54,66,60,54,98,80,48,30.20,30.13,3,0,7,0.01
2014-8-26,86,69,54,66,61,53,100,79,47,30.20,30.08,3,1,5,0.00
2014-8-27,89,72,57,73,66,56,98,82,58,30.09,29.89,2,1,5,0.01
2014-8-28,81,71,58,70,62,55,95,74,44,30.10,29.91,3,1,7,0.00
2014-8-29,79,64,50,62,56,49,97,77,49,30.21,30.09,3,1,6,0.00
2014-8-30,81,72,58,72,66,56,94,84,73,30.20,30.08,5,2,11,0.00
2014-8-31,89,79,71,76,73,70,96,83,55,30.09,29.96,4,1,6,0.00
2014-9-1,90,79,71,76,73,70,96,82,57,30.01,29.90,4,1,11,0.01
2014-9-2,90,78,71,78,71,68,96,82,56,29.96,29.79,5,1,13,0.46
2014-9-3,84,74,66,70,68,64,98,82,55,30.12,29.90,2,0,4,0.01
2014-9-4,87,75,64,74,68,63,98,82,63,30.15,30.05,5,1,8,0.00
2014-9-5,88,77,68,79,73,67,98,88,67,30.14,29.99,0,0,0,0.25
2014-9-6,90,75,65,77,71,64,98,89,60,30.01,29.83,7,1,8,1.43
2014-9-7,78,67,58,64,59,55,96,77,48,30.18,29.99,2,0,4,0.00
2014-9-8,76,63,53,66,58,52,98,84,65,30.25,30.17,6,1,9,0.00
2014-9-9,74,67,61,67,63,58,94,88,76,30.22,30.09,2,0,4,0.00
2014-9-10,79,70,64,68,65,63,96,85,67,30.11,29.94,5,1,9,0.00
2014-9-11,83,74,64,73,68,58,90,81,68,30.01,29.85,4,2,12,0.00
2014-9-12,75,63,53,60,56,52,97,80,55,30.16,30.01,2,0,6,0.00
2014-9-13,57,56,54,54,53,52,94,92,90,30.16,30.10,0,0,1,0.00
2014-9-16,74,64,53,61,56,51,97,76,48,30.06,29.99,3,1,5,0.00
2014-9-17,76,59,44,58,51,43,99,79,41,30.08,29.95,3,0,4,0.00
2014-9-18,53,51,51,51,50,49,96,95,94,29.97,29.96,0,0,0,0.00
2014-9-25,68,64,58,64,61,57,95,91,84,30.26,30.24,1,0,1,0.58
2014-9-26,76,60,51,63,56,50,98,86,54,30.28,30.19,2,0,6,0.01
2014-9-27,82,61,47,63,55,46,98,84,48,30.27,30.17,2,0,5,0.00
2014-9-28,78,62,49,64,57,48,98,84,46,30.21,30.04,2,0,5,0.01
2014-9-29,76,66,57,65,61,56,97,86,65,30.04,29.90,2,0,4,0.01
2014-9-30,78,65,54,66,61,54,98,88,63,29.94,29.82,4,1,7,0.37
2014-10-1,70,62,55,65,60,54,98,94,80,30.07,29.94,2,0,2,0.05
2014-10-2,75,62,52,64,58,51,99,89,64,30.14,30.06,2,0,5,0.00
2014-10-3,68,66,63,64,63,60,95,89,82,30.01,29.67,6,3,12,0.17
2014-10-4,66,58,39,65,48,32,97,71,41,29.82,29.59,8,3,14,0.01
2014-10-5,61,46,34,43,38,33,100,75,42,29.97,29.81,6,1,10,0.00
2014-10-6,72,55,36,54,45,35,97,73,48,29.99,29.86,7,2,12,0.01
2014-10-7,66,60,55,59,55,52,95,84,66,30.01,29.82,5,2,8,0.37
2014-10-8,74,61,50,58,51,44,98,73,41,30.00,29.83,7,2,12,0.00
2014-10-9,72,57,40,49,44,38,95,66,36,30.11,30.00,7,2,11,0.00
2014-10-10,58,54,49,53,51,47,94,89,81,30.12,30.06,1,0,2,0.01
2014-10-11,60,52,48,53,50,47,97,93,77,30.18,30.00,1,0,2,0.46
2014-10-12,64,53,42,50,47,41,98,81,55,30.30,30.17,4,1,8,0.01
2014-10-13,63,59,54,62,56,49,97,90,80,30.27,30.17,3,1,7,0.00
2014-10-14,77,71,62,68,66,61,97,86,71,30.16,29.91,7,4,13,0.00
2014-10-15,72,65,55,69,63,54,99,95,85,29.90,29.71,7,2,12,1.57
2014-10-16,67,60,53,61,56,52,99,89,69,29.75,29.69,3,1,5,0.01
2014-10-17,72,61,49,56,53,48,98,78,51,29.80,29.64,5,2,10,0.00
2014-10-18,63,57,49,54,48,42,86,72,58,29.87,29.59,6,2,13,0.00
2014-10-19,58,50,44,43,37,32,76,63,41,30.09,29.86,4,2,12,0.00
2014-10-20,62,53,33,50,44,31,97,73,50,30.12,29.91,5,1,8,0.00
2014-10-21,66,53,46,53,49,44,98,88,55,29.93,29.81,4,0,6,0.20
2014-10-22,56,52,47,51,48,43,98,89,75,30.02,29.90,3,1,6,0.04
2014-10-23,65,56,47,50,45,42,86,68,54,29.99,29.88,4,2,10,0.00
2014-10-24,66,54,42,46,42,37,87,65,36,30.01,29.90,4,1,7,0.00
2014-10-25,72,54,38,50,44,36,96,71,42,29.98,29.68,6,1,16,0.00
2014-10-26,68,59,47,51,37,32,80,45,29,29.92,29.67,5,2,11,0.00
2014-10-27,71,52,32,42,36,30,95,60,28,30.09,29.92,3,0,8,0.00
2014-10-28,84,64,46,58,51,41,92,65,37,30.02,29.87,4,1,6,0.00
2014-10-29,68,59,54,55,52,50,92,79,62,29.98,29.87,2,0,4,0.13
2014-10-30,56,42,36,47,39,35,98,90,59,30.09,29.98,2,0,4,0.00
2014-10-31,52,46,38,43,40,37,96,80,61,30.02,29.86,2,0,4,0.00
2014-11-1,51,46,42,42,39,32,89,78,65,29.98,29.81,4,1,9,0.01
2014-11-2,50,43,36,32,28,22,74,56,36,30.27,29.98,5,3,10,0.00
2014-11-3,58,46,29,33,25,19,83,48,22,30.34,30.21,5,1,9,0.00
2014-11-4,71,55,36,41,35,31,91,51,24,30.22,30.03,4,1,6,0.00
2014-11-5,63,56,51,50,45,36,92,68,42,30.18,30.04,3,0,6,0.02
2014-11-6,62,53,48,55,49,41,97,86,55,30.10,29.65,5,1,7,0.35
2014-11-7,52,45,39,43,36,28,84,69,51,30.05,29.71,6,2,20,0.00
2014-11-8,49,41,29,34,29,24,87,64,47,30.07,29.89,5,2,7,0.00
2014-11-9,58,45,33,38,34,30,91,68,39,30.03,29.90,4,1,7,0.00
2014-11-10,63,47,30,44,37,29,95,72,47,30.16,30.02,5,1,12,0.00
2014-11-11,67,53,35,56,46,33,96,78,50,30.08,29.86,4,1,8,0.00
2014-11-12,57,47,33,49,36,27,95,66,44,30.16,29.84,5,1,9,0.00
2014-11-13,40,36,30,34,30,26,89,80,63,30.18,30.07,3,0,7,0.00
2014-11-14,39,32,24,28,22,18,80,66,45,30.31,30.09,5,1,11,0.00
2014-11-15,42,29,18,26,20,16,92,72,41,30.45,30.31,3,0,7,0.00
2014-11-16,40,36,25,35,26,21,93,68,53,30.35,30.01,4,1,7,0.16
2014-11-17,43,39,34,42,36,23,96,90,65,30.01,29.52,6,1,12,0.41
2014-11-18,33,24,18,23,8,4,67,52,39,30.26,29.82,10,5,16,0.00
2014-11-19,34,28,19,16,12,9,66,51,45,30.29,29.99,5,3,13,0.00
2014-11-20,46,36,29,28,18,13,58,47,34,30.15,29.92,10,3,13,0.00
2014-11-21,35,27,17,14,12,10,82,54,37,30.55,30.16,6,2,10,0.00
2014-11-22,45,28,13,24,17,10,92,67,36,30.55,30.22,5,1,9,0.00
2014-11-23,57,47,30,53,31,22,95,55,34,30.21,29.73,5,1,8,0.17
2014-11-24,70,62,54,58,55,44,96,79,55,29.77,29.53,9,4,17,0.20
2014-11-25,57,48,35,47,35,30,87,63,43,30.17,29.77,6,2,13,0.00
2014-11-26,41,36,33,37,33,32,97,92,75,30.18,29.95,2,0,4,0.58
2014-11-27,40,35,32,37,32,26,97,87,75,30.19,30.02,4,1,6,0.16
2014-11-28,36,31,23,26,22,17,86,70,51,30.33,30.19,6,2,7,0.00
2014-11-29,43,36,24,30,26,20,91,69,54,30.32,30.12,5,2,12,0.01
2014-11-30,61,48,36,46,37,30,81,65,54,30.12,30.01,4,1,9,0.00
2014-12-1,66,57,39,55,48,32,89,74,67,30.48,30.11,5,3,8,0.11
2014-12-2,38,34,33,34,31,27,96,86,71,30.58,30.29,3,0,3,0.37
2014-12-3,51,40,33,47,36,26,97,87,63,30.33,30.03,7,2,8,0.04
2014-12-4,42,36,29,32,28,25,91,74,58,30.48,30.32,3,0,5,0.00
2014-12-5,40,38,37,37,33,29,95,82,70,30.51,30.30,4,1,7,0.25
2014-12-6,42,40,38,42,39,37,97,96,94,30.31,30.05,3,1,10,0.56
2014-12-7,45,35,26,37,25,19,93,69,40,30.60,30.32,4,1,8,0.00
2014-12-8,34,29,25,28,23,18,93,79,63,30.61,30.30,3,1,4,0.05
2014-12-9,32,31,30,32,30,28,96,94,93,30.30,30.09,2,0,3,0.11
2014-12-10,43,40,35,36,33,26,84,74,67,29.91,29.83,6,3,11,0.00
2014-12-11,37,34,32,26,22,13,72,62,39,30.00,29.82,8,4,17,0.00
2014-12-12,38,35,27,28,25,18,86,68,46,30.15,29.99,4,2,11,0.00
2014-12-13,42,34,25,33,28,22,91,79,66,30.15,30.03,3,0,6,0.00
2014-12-14,50,45,34,41,38,29,85,76,68,30.04,29.96,3,1,8,0.00
2014-12-15,56,46,40,44,41,36,90,81,63,30.10,30.00,2,0,3,0.00
2014-12-16,42,42,41,41,41,40,97,97,97,29.92,29.90,1,0,2,0.12
2014-12-17,47,42,36,42,34,24,100,77,57,30.08,29.91,7,2,10,0.00
2014-12-18,36,34,31,26,24,21,75,68,60,30.18,30.07,5,2,11,0.00
2014-12-19,39,33,28,28,25,21,79,72,61,30.27,30.11,4,1,7,0.00
2014-12-20,35,27,19,25,22,16,92,81,63,30.34,30.26,2,0,3,0.00
2014-12-21,38,32,26,28,25,22,90,78,61,30.38,30.29,2,0,4,0.00
2014-12-22,35,33,32,32,31,28,96,91,78,30.24,30.13,1,0,4,0.18
2014-12-23,40,36,33,39,36,32,98,97,96,30.13,30.01,2,0,3,0.09
2014-12-24,53,46,39,52,45,39,99,98,98,30.04,29.49,5,0,7,0.58
2014-12-25,50,47,41,49,40,33,98,77,56,30.05,29.58,9,3,13,0.09
2015-1-1,38,36,35,20,19,19,53,51,46,30.10,30.09,5,2,12,0.00
2015-1-2,44,34,24,24,21,18,84,59,45,30.43,30.10,6,1,9,0.00